Regional Weather Roundup
Issued by NWS

Home | Current Version | Previous Version | Text Only | Print | Product List | Glossary On
Versions: 1 2 3 4 5 6 7 8 9 10 11 12 13 14 15 16 17 18 19 20 21 22 23 24 25 26 27 28 29 30 31 32 33 34 35 36 37 38 39 40 41 42 43 44 45 46 47 48 49 50
000
ASUS45 KBOI 220210
RWRID
WEATHER ROUNDUP FOR IDAHO
NATIONAL WEATHER SERVICE BOISE ID
800 PM MDT THU AUG 21 2014

NOTE: "FAIR" INDICATES FEW OR NO CLOUDS BELOW 12000 FEET
WITH NO SIGNIFICANT WEATHER AND/OR OBSTRUCTIONS TO VISIBILITY

IDZ012-014-220300-
SOUTHWEST IDAHO


CITY           SKY/WX    TMP DP  RH WIND       PRES   REMARKS
BOISE          MOCLDY    79  30  16 W6        29.88S
CALDWELL       MOCLDY    75  43  31 S3        29.88S
MOUNTAIN HOME  MOCLDY    81  41  23 N14       29.87F
$$

IDZ016-017-220300-
SOUTHCENTRAL IDAHO


CITY           SKY/WX    TMP DP  RH WIND       PRES   REMARKS
BURLEY         LGT RAIN  62  53  72 S9G22     30.01F
JEROME         MOCLDY    62  55  77 SE9       29.99F
TWIN FALLS     CLOUDY    63  54  72 SE12      29.99F
$$

IDZ019>023-220300-
SOUTHEAST IDAHO


CITY           SKY/WX    TMP DP  RH WIND       PRES   REMARKS
IDAHO FALLS    MOCLDY    63  51  65 E8        30.06R
POCATELLO      MOCLDY    68  48  48 SW16G25   30.03R
REXBURG        MOCLDY    59  51  75 NE7       30.07R
$$

IDZ006-010-011-018-031-032-220300-
CENTRAL IDAHO MOUNTAINS


CITY           SKY/WX    TMP DP  RH WIND       PRES   REMARKS
MCCALL         PTCLDY    68  29  23 SE5       29.99S
HAILEY         MOCLDY    57  54  88 E10       30.08R
STANLEY          N/A     67  40  37 VRB5      30.07S
SALMON         MOCLDY    64  55  72 N8        29.94F
CHALLIS        MOCLDY    67  44  43 SE8       29.98S
$$

IDZ002-004-006-007-026-220300-
NORTHERN IDAHO


CITY           SKY/WX    TMP DP  RH WIND       PRES   REMARKS
LEWISTON       MOCLDY    81  45  28 NW9       29.83S
LOWELL           N/A     73  58  59 N3        29.81S
COEUR D`ALENE  CLOUDY    64  52  63 N16       29.92R
MULLAN PASS    MOCLDY    51  45  79 E6        30.09S
$$


USA.gov is the U.S. government's official web portal to all federal, state and local government web resources and services.